Location: LDNL
(36.4545°S, 141.6685°E)
Time: 18:47:14
(UTC+10:00)

A-11 Canister half - Pass Details

Date: 28 January 2022
Orbit: 1527 x 1682 km, 47.3° (Epoch: 20 May)

Event Time Altitude Azimuth Distance (km) Brightness Sun altitude
Rises 05:35:10 0° 239° (WSW) 4,894 11.4 -13.1°
Reaches altitude 10° 05:38:23 10° 236° (SW) 3,886 10.9 -12.5°
Maximum altitude 05:48:18 74° 151° (SSE) 1,656 9.3 -10.9°
Drops below altitude 10° 05:57:50 10° 65° (ENE) 3,745 11.5 -9.3°
Sets 06:00:52 0° 63° (ENE) 4,709 12.0 -8.7°
